SCP
-0 -0 -0 -0 -0 0 0 0 0 0 0 0 0 0 0 0 0 0 0 0 0 0 0 0 0 0 0 0 0 0 0 0 0 0 0 0 0 0 0 0 0 0 0 0 0
-0 -0 -0 -0 -0 0 0 0 0 0 0 0 0 0 0 0 0 0 0 0 0 0 0 0 0 0 0 0 0 0 0 0 0 0 0 0 0 0 0 0 0 0 0 0 0
0 0 0 0 0 0 0 0 0 0 0 0 0 0 0 0 0 0 0 0 0 0 0 0 0 0 0 0 0 0 0 0 0 0 0 0 0 0 0 0 0 0 0 0 0
0 0 0 0 0 0 0 0 0 0 0 0 0 0 0 0 0 0 0 0 0 0 0 0 0 0 0 0 0 0 0 0 0 0 0 0 0 0 0 0 0 0 0 0 0
0 0 0 0 0 0 0 0 0 0 0 0 0 0 0 0 0 0 0 0 0 0 0 0 0 0 0 0 0 0 0 0 0 0 0 0 0 0 0 0 0 0 0 0 0
0 0 0 0 0 0 0 0 0 0 0 0 0 0 0 0 0 0 0 0 0 0 0 0 0 0 0 0 0 0 0 0 0 0 0 0 0 0 0 0 0 0 0 0 0
0 0 0 0 0 0 0 0 0 0 0 0 0 0 0 0 0 0 0 0 0 0 0 0 0 0 0 0 0 0 0 0 0 0 0 0 0 0 0 0 0 0 0 0 0
0 0 0 0 0 0 0 0 0 0 0 0 0 0 0 0 0 0 0 0 0 0 0 0 0 0 0 0 0 0 0 0 0 0 0 0 0 0 0 0 0 0 0 0 0
0 0 0 0 0 0 0 0 0 0 0 0 0 0 0 0 0 0 0 0 0 0 0 0 0 0 0 0 0 0 0 0 0 0 0 0 0 0 0 0 0 0 0 0 0
0 0 0 0 0 0 0 0 0 0 0 0 0 0 0 0 0 0 0 0 0 0 0 0 0 0 0 0 0 0 0 0 0 0 0 0 0 0 0 0 0 0 0 0 0
0 0 0 0 0 0 0 0 0 0 0 0 0 0 0 0 0 0 0 0 0 0 0 0 0 0 0 0 0 0 0 0 0 0 0 0 0 0 0 0 0 0 0 0 0
0 0 0 0 0 0 0 0 0 0 0 0 0 0 0 0 0 0 0 0 0 0 0 0 0 0 0 0 0 0 0 0 0 0 0 0 0 0 0 0 0 0 0 0 0
0 0 0 0 0 0 0 0 0 0 0 0 0 0 0 0 0 0 0 0 0 0 0 0 0 0 0 0 0 0 0 0 0 0 -0 -0 -0 0 0 0 0 0 0 0 0
0 0 0 0 0 0 0 0 0 0 0 0 0 0 0 0 0 0 0 0 0 0 0 0 0 0 0 0 0 0 0 0 0 0 -0 0 -0 -0 0 0 0 0 0 0 0
0 0 0 0 0 0 0 0 0 0 0 0 0 0 0 0 0 0 0 0 0 0 0 0 0 0 0 0 0 0 0 0 0 0 0 0 0 -0 0 0 0 0 0 0 0
0 0 0 0 0 0 0 0 0 0 0 0 0 0 0 0 0 0 0 0 0 0 0 0 0 0 0 0 0 0 0 0 0 0 0 0 0 -0 -0 0 0 0 0 0 0
0 0 0 0 0 0 0 0 0 0 0 0 0 0 0 0 0 0 0 0 0 0 0 0 0 0 0 0 0 0 0 0 0 0 0 0 0 0 0 0 0 0 0 0 0
0 0 0 0 0 0 0 0 0 0 0 0 0 0 0 0 0 0 0 0 0 0 0 0 0 0 0 0 0 0 0 0 0 0 0 0 0 0 0 0 0 0 0 0 0
0 0 0 0 0 0 0 0 0 0 0 0 0 0 0 0 0 0 0 0 0 0 0 0 0 0 0 0 0 0 0 0 0 0 0 0 0 0 0 0 0 0 0 0 0
0 0 0 0 0 0 0 0 0 0 0 0 0 0 0 0 0 0 0 0 0 0 0 0 0 0 0 0 0 0 0 0 0 0 0 0 0 0 0 0 0 0 0 0 0
0 0 0 0 0 0 0 0 0 0 0 0 0 0 0 0 0 0 0 0 0 0 0 0 0 0 0 0 0 0 0 0 0 0 0 0 0 0 0 0 0 0 0 0 0
-0 0 0 0 0 0 0 0 0 0 0 0 0 0 0 0 0 0 0 0 0 0 0 0 0 0 0 0 0 0 0 0 0 0 0 0 0 0 0 0 0 0 0 0 0
-0 -0 0 0 0 0 0 0 0 0 0 0 0 0 0 0 0 0 0 0 0 0 0 0 0 0 0 0 0 0 0 0 0 0 0 0 0 0 0 0 0 0 0 0 0
0 0 0 0 0 0 0 0 0 0 0 0 0 0 0 0 0 0 0 0 0 0 0 0 0 0 0 0 0 0 0 0 0 0 0 0 0 0 0 0 0 0 0 0 0
0 0 0 0 0 0 0 0 0 0 0 0 0 0 0 0 0 0 0 0 0 0 0 0 0 0 0 0 0 0 0 0 0 0 0 0 0 0 0 0 0 0 0 0 0
0 0 0 0 0 0 0 0 0 0 0 0 0 0 0 0 0 0 0 0 0 0 0 0 0 0 0 0 0 0 0 0 0 0 0 0 0 0 0 0 0 0 0 0 0
0 0 0 0 0 0 0 0 0 0 0 0 0 0 0 0 0 0 0 0 0 0 0 0 0 0 0 0 0 0 0 0 0 0 0 0 0 0 0 0 0 0 0 0 0
Wind_Speed_500mb
21 13 9 5 8 9 11 5 8 9 9 9 7 12 14 17 21 28 36 21 29 20 26 27 29 30 28 21 13 9 6 6 9 9 9 3 3 5 7 11 12 13 21 17 9
32 23 13 8 8 12 12 10 9 9 10 8 9 10 12 13 22 32 22 23 28 24 25 32 37 31 14 16 14 8 7 18 9 6 6 3 3 6 6 11 17 30 38 33 25
34 41 27 23 23 18 17 11 11 11 8 10 9 12 9 9 13 15 28 28 30 28 26 25 29 30 13 14 14 12 11 9 8 13 7 3 8 9 4 15 38 33 32 34 36
35 40 37 33 27 18 15 16 15 16 12 8 8 10 11 10 11 5 14 32 33 28 30 34 37 22 10 10 14 5 19 14 6 4 5 5 7 11 27 50 35 24 25 27 36
23 33 38 43 33 25 22 16 18 14 13 10 10 10 7 10 10 6 8 29 27 30 37 33 38 16 11 10 10 5 7 13 21 19 18 23 22 19 49 65 54 52 45 36 33
22 21 23 32 33 25 26 24 18 12 11 10 9 11 6 5 6 7 8 19 27 29 32 30 22 17 10 8 11 3 9 23 22 26 14 11 8 0 24 17 11 18 16 33 48
36 24 24 25 30 26 20 19 18 14 15 11 9 9 14 15 8 8 12 15 24 27 29 30 15 15 11 4 5 1 9 14 12 8 11 6 14 20 43 36 32 16 21 22 30
32 41 32 25 29 24 20 16 12 11 11 11 11 10 9 9 17 10 14 17 19 22 20 28 16 10 4 0 5 4 7 7 2 9 3 5 19 15 16 17 24 23 31 39 39
22 36 45 33 26 30 27 19 14 12 11 10 14 7 7 9 16 20 16 13 19 21 16 19 16 4 5 8 8 6 6 9 14 12 5 6 15 13 9 21 46 58 64 54 50
25 24 39 51 41 33 31 22 19 16 16 15 16 8 13 6 10 21 22 19 16 24 17 11 7 5 3 8 12 11 8 10 10 3 2 6 32 33 62 50 61 61 68 66 57
21 23 32 47 52 44 35 19 13 9 19 15 5 2 6 11 15 19 29 24 20 14 10 7 7 18 25 9 2 9 7 5 5 3 2 13 28 37 41 42 53 52 55 39 30
19 29 26 25 36 42 41 20 13 6 9 18 32 24 14 14 10 23 34 19 11 8 10 8 14 10 9 9 8 4 4 10 9 3 3 13 33 40 34 31 37 35 34 28 14
23 19 19 15 20 34 34 35 21 15 4 14 30 31 31 26 11 33 41 16 6 9 12 12 6 10 16 7 10 6 9 4 10 8 4 14 18 14 10 9 27 30 18 12 12
8 11 14 6 20 24 23 26 23 16 3 10 13 15 26 21 9 28 48 17 6 19 12 9 8 7 8 6 12 4 12 10 5 5 6 7 12 13 14 22 11 27 20 13 10
5 10 9 17 17 29 22 27 29 17 4 6 8 9 26 21 23 14 50 12 15 14 13 15 5 9 7 9 16 10 6 10 4 5 4 4 4 16 6 17 11 10 2 9 6
9 12 10 14 22 29 24 36 29 6 14 8 7 8 11 2 5 12 17 7 8 10 3 10 2 6 10 5 10 15 12 14 9 5 4 9 10 11 8 7 7 6 6 5 6
12 13 5 13 24 30 29 34 6 8 9 8 7 8 6 8 7 6 12 12 12 10 11 1 4 1 5 11 7 8 12 4 7 4 11 5 6 20 16 15 10 18 36 12 9
17 7 9 10 32 34 32 6 8 8 9 6 6 12 10 10 5 7 15 17 9 4 6 13 6 16 10 12 14 13 14 10 13 8 6 6 10 13 10 14 15 16 22 13 10
9 13 13 5 28 31 11 8 14 11 7 9 10 7 6 9 7 8 14 14 13 16 9 10 10 1 4 6 12 12 10 12 9 5 7 7 13 24 4 12 19 25 16 11 6
7 8 22 2 18 18 3 6 1 10 16 3 7 3 9 12 10 13 18 6 7 21 7 1 2 4 2 5 5 8 11 6 4 4 7 6 9 12 20 28 27 34 46 28 10
4 4 17 7 15 6 5 2 4 11 23 8 4 5 6 8 9 9 13 8 10 9 15 5 5 5 4 11 15 7 6 3 8 9 9 6 9 11 14 17 22 31 56 55 22
6 6 13 6 9 6 4 2 11 12 25 10 6 3 4 4 7 8 11 3 11 3 7 6 4 8 13 3 3 1 11 12 8 9 5 2 7 8 13 16 33 41 52 63 46
8 7 21 10 6 4 7 9 11 13 11 13 9 10 8 5 4 3 7 8 23 10 8 11 7 5 5 1 3 9 10 7 6 5 12 11 8 8 17 24 41 43 53 62 56
6 5 16 22 9 9 4 8 11 20 8 9 11 12 7 6 5 4 6 8 9 10 19 5 7 9 11 3 4 9 9 12 10 6 11 14 6 3 23 23 34 46 53 52 56
12 5 3 5 14 8 9 4 3 7 13 27 6 11 8 8 5 7 12 9 13 25 4 4 4 2 6 7 7 5 1 7 25 25 11 6 12 6 15 16 25 33 43 54 59
11 7 11 13 8 9 12 9 7 5 9 11 9 9 14 7 6 7 10 12 9 10 8 5 3 2 5 11 13 11 10 9 5 7 12 10 10 6 15 23 31 36 43 49 55
24 16 7 19 8 7 5 7 14 5 11 16 3 2 6 2 13 20 18 18 7 6 8 9 5 3 6 5 4 8 8 10 5 9 4 8 7 11 11 20 28 30 34 39 45
Wind_Direction_500mb
277 256 280 249 304 320 299 338 7 344 323 293 205 218 240 243 233 233 232 217 207 190 189 184 174 178 171 165 157 162 82 222 253 169 255 347 26 246 268 261 238 230 248 257 261
256 249 248 248 262 269 283 295 304 358 342 321 293 260 231 240 252 240 221 211 193 189 178 183 177 166 157 177 171 130 171 212 215 218 242 307 247 287 303 275 261 255 252 252 242
248 238 236 229 224 223 247 270 282 295 318 325 301 289 268 233 257 245 208 195 182 189 183 185 174 163 160 169 180 175 216 210 255 238 254 238 271 250 219 264 252 253 281 256 239
209 211 228 239 234 233 236 253 253 272 284 306 319 305 287 212 218 200 195 183 183 181 180 172 170 158 141 179 189 180 246 235 275 277 280 242 274 278 233 254 270 285 276 261 236
221 206 203 222 232 227 233 230 257 261 284 302 320 329 277 232 248 192 174 186 185 183 186 178 168 149 172 181 155 221 271 257 261 268 268 270 258 259 270 276 277 270 259 255 247
259 231 213 210 230 235 234 232 242 262 287 299 318 328 297 263 212 205 182 190 192 193 188 182 189 174 160 179 169 219 253 276 287 276 262 227 248 267 270 269 281 278 274 255 254
267 247 229 209 217 222 229 224 236 251 277 289 297 304 279 249 219 173 174 170 188 191 191 185 176 181 160 185 229 157 317 324 258 258 231 207 277 229 266 269 272 269 269 258 261
263 257 247 223 216 219 223 227 217 253 268 289 308 306 261 237 212 166 170 174 181 184 183 187 177 175 163 234 32 77 57 347 297 141 230 147 268 276 248 269 265 278 286 271 258
261 259 249 245 227 231 227 228 242 250 275 304 303 303 266 224 212 201 192 181 182 180 166 181 178 161 128 86 7 6 213 207 311 187 142 150 281 276 267 289 287 284 285 279 261
250 276 252 243 236 234 226 235 252 268 267 287 256 296 240 213 182 189 171 160 167 173 152 156 140 106 71 140 213 184 211 238 238 229 178 248 266 271 282 290 283 287 289 286 276
228 268 261 241 238 232 227 238 238 260 230 219 171 183 147 174 160 174 170 158 151 162 153 167 135 205 203 175 98 130 174 241 277 10 312 251 273 280 283 275 278 283 290 280 284
233 255 277 257 238 228 222 200 191 169 306 255 239 226 176 178 163 175 170 166 157 169 124 77 241 199 157 181 235 304 7 290 290 356 193 303 283 284 277 260 266 274 276 290 274
249 274 284 268 219 199 198 202 198 215 305 279 239 229 224 210 210 184 180 162 136 136 186 170 209 164 160 160 184 217 203 219 232 330 258 330 286 318 296 284 284 272 265 260 271
256 293 314 239 171 168 171 183 158 149 26 258 207 230 198 183 230 202 184 154 171 184 158 247 279 112 144 177 137 243 201 173 204 65 238 45 287 306 294 304 274 293 239 236 270
319 329 329 171 159 171 175 164 155 149 30 233 155 164 167 175 141 168 181 175 162 177 133 234 196 187 162 199 158 217 116 138 117 124 6 317 64 271 318 289 298 359 174 201 249
344 338 333 179 162 173 171 168 144 89 245 168 132 148 132 143 81 105 169 152 149 132 215 218 229 176 197 107 154 146 78 46 54 73 338 239 146 289 247 250 312 344 22 203 218
333 332 346 159 174 174 167 154 111 184 285 193 170 154 134 141 113 134 154 173 166 134 200 22 216 278 149 87 57 96 92 336 346 10 226 360 94 247 275 284 275 296 296 281 217
338 41 80 155 168 185 180 134 129 243 213 128 131 136 175 136 161 148 138 195 245 115 135 161 270 169 191 178 175 178 155 164 212 196 244 56 228 248 216 300 296 321 332 301 219
42 79 44 120 180 192 197 168 196 206 188 150 105 137 175 169 133 139 181 202 203 193 199 162 257 120 133 150 144 177 199 158 97 26 60 226 279 304 88 31 10 352 337 340 274
109 67 24 122 190 187 126 174 71 344 336 14 149 183 165 163 161 174 172 240 220 186 212 244 259 12 134 124 47 147 173 94 8 201 239 272 276 243 359 350 352 5 4 352 323
144 49 27 23 168 152 134 144 336 340 355 3 128 139 123 156 171 174 178 22 4 329 202 78 343 338 120 215 167 148 182 146 147 172 182 161 250 356 14 2 0 5 6 5 352
67 41 24 75 68 47 56 38 17 7 356 22 54 106 86 114 156 190 193 49 359 145 162 189 116 203 204 278 253 258 203 170 161 216 238 188 254 18 42 24 21 17 15 29 36
78 42 29 23 102 13 334 348 49 25 19 6 41 23 7 78 89 60 39 26 37 59 99 146 201 123 319 296 87 217 193 195 126 99 201 148 234 103 37 27 19 18 18 28 36
80 46 31 51 56 114 69 7 13 22 52 1 20 29 20 60 52 67 54 35 40 41 6 207 194 208 206 155 110 184 193 189 182 193 220 224 169 348 15 18 5 12 19 23 30
54 68 40 356 16 44 66 47 167 4 357 19 70 44 19 47 33 51 12 355 54 6 72 73 274 236 276 290 359 32 242 202 217 229 223 259 223 51 22 13 7 14 16 20 21
79 67 71 19 46 42 16 350 32 105 42 340 58 338 26 77 63 49 356 21 43 344 19 32 314 221 275 250 244 250 239 267 276 285 279 262 256 16 60 32 26 19 19 20 17
56 59 87 6 20 66 336 18 19 130 48 47 257 17 68 104 310 283 270 280 285 340 332 356 331 335 268 319 165 249 300 255 165 64 12 241 36 10 35 47 28 19 24 19 14
Wind_Speed_850mb
21 13 9 5 8 9 11 5 8 9 9 9 7 12 14 17 21 28 36 21 29 20 26 27 29 30 28 21 13 9 6 6 9 9 9 3 3 5 7 11 12 13 21 17 9
32 23 13 8 8 12 12 10 9 9 10 8 9 10 12 13 22 32 22 23 28 24 25 32 37 31 14 16 14 8 7 18 9 6 6 3 3 6 6 11 17 30 38 33 25
34 41 27 23 23 18 17 11 11 11 8 10 9 12 9 9 13 15 28 28 30 28 26 25 29 30 13 14 14 12 11 9 8 13 7 3 8 9 4 15 38 33 32 34 36
35 40 37 33 27 18 15 16 15 16 12 8 8 10 11 10 11 5 14 32 33 28 30 34 37 22 10 10 14 5 19 14 6 4 5 5 7 11 27 50 35 24 25 27 36
23 33 38 43 33 25 22 16 18 14 13 10 10 10 7 10 10 6 8 29 27 30 37 33 38 16 11 10 10 5 7 13 21 19 18 23 22 19 49 65 54 52 45 36 33
22 21 23 32 33 25 26 24 18 12 11 10 9 11 6 5 6 7 8 19 27 29 32 30 22 17 10 8 11 3 9 23 22 26 14 11 8 0 24 17 11 18 16 33 48
36 24 24 25 30 26 20 19 18 14 15 11 9 9 14 15 8 8 12 15 24 27 29 30 15 15 11 4 5 1 9 14 12 8 11 6 14 20 43 36 32 16 21 22 30
32 41 32 25 29 24 20 16 12 11 11 11 11 10 9 9 17 10 14 17 19 22 20 28 16 10 4 0 5 4 7 7 2 9 3 5 19 15 16 17 24 23 31 39 39
22 36 45 33 26 30 27 19 14 12 11 10 14 7 7 9 16 20 16 13 19 21 16 19 16 4 5 8 8 6 6 9 14 12 5 6 15 13 9 21 46 58 64 54 50
25 24 39 51 41 33 31 22 19 16 16 15 16 8 13 6 10 21 22 19 16 24 17 11 7 5 3 8 12 11 8 10 10 3 2 6 32 33 62 50 61 61 68 66 57
21 23 32 47 52 44 35 19 13 9 19 15 5 2 6 11 15 19 29 24 20 14 10 7 7 18 25 9 2 9 7 5 5 3 2 13 28 37 41 42 53 52 55 39 30
19 29 26 25 36 42 41 20 13 6 9 18 32 24 14 14 10 23 34 19 11 8 10 8 14 10 9 9 8 4 4 10 9 3 3 13 33 40 34 31 37 35 34 28 14
23 19 19 15 20 34 34 35 21 15 4 14 30 31 31 26 11 33 41 16 6 9 12 12 6 10 16 7 10 6 9 4 10 8 4 14 18 14 10 9 27 30 18 12 12
8 11 14 6 20 24 23 26 23 16 3 10 13 15 26 21 9 28 48 17 6 19 12 9 8 7 8 6 12 4 12 10 5 5 6 7 12 13 14 22 11 27 20 13 10
5 10 9 17 17 29 22 27 29 17 4 6 8 9 26 21 23 14 50 12 15 14 13 15 5 9 7 9 16 10 6 10 4 5 4 4 4 16 6 17 11 10 2 9 6
9 12 10 14 22 29 24 36 29 6 14 8 7 8 11 2 5 12 17 7 8 10 3 10 2 6 10 5 10 15 12 14 9 5 4 9 10 11 8 7 7 6 6 5 6
12 13 5 13 24 30 29 34 6 8 9 8 7 8 6 8 7 6 12 12 12 10 11 1 4 1 5 11 7 8 12 4 7 4 11 5 6 20 16 15 10 18 36 12 9
17 7 9 10 32 34 32 6 8 8 9 6 6 12 10 10 5 7 15 17 9 4 6 13 6 16 10 12 14 13 14 10 13 8 6 6 10 13 10 14 15 16 22 13 10
9 13 13 5 28 31 11 8 14 11 7 9 10 7 6 9 7 8 14 14 13 16 9 10 10 1 4 6 12 12 10 12 9 5 7 7 13 24 4 12 19 25 16 11 6
7 8 22 2 18 18 3 6 1 10 16 3 7 3 9 12 10 13 18 6 7 21 7 1 2 4 2 5 5 8 11 6 4 4 7 6 9 12 20 28 27 34 46 28 10
4 4 17 7 15 6 5 2 4 11 23 8 4 5 6 8 9 9 13 8 10 9 15 5 5 5 4 11 15 7 6 3 8 9 9 6 9 11 14 17 22 31 56 55 22
6 6 13 6 9 6 4 2 11 12 25 10 6 3 4 4 7 8 11 3 11 3 7 6 4 8 13 3 3 1 11 12 8 9 5 2 7 8 13 16 33 41 52 63 46
8 7 21 10 6 4 7 9 11 13 11 13 9 10 8 5 4 3 7 8 23 10 8 11 7 5 5 1 3 9 10 7 6 5 12 11 8 8 17 24 41 43 53 62 56
6 5 16 22 9 9 4 8 11 20 8 9 11 12 7 6 5 4 6 8 9 10 19 5 7 9 11 3 4 9 9 12 10 6 11 14 6 3 23 23 34 46 53 52 56
12 5 3 5 14 8 9 4 3 7 13 27 6 11 8 8 5 7 12 9 13 25 4 4 4 2 6 7 7 5 1 7 25 25 11 6 12 6 15 16 25 33 43 54 59
11 7 11 13 8 9 12 9 7 5 9 11 9 9 14 7 6 7 10 12 9 10 8 5 3 2 5 11 13 11 10 9 5 7 12 10 10 6 15 23 31 36 43 49 55
24 16 7 19 8 7 5 7 14 5 11 16 3 2 6 2 13 20 18 18 7 6 8 9 5 3 6 5 4 8 8 10 5 9 4 8 7 11 11 20 28 30 34 39 45
Wind_Direction_850mb
277 256 280 249 304 320 299 338 7 344 323 293 205 218 240 243 233 233 232 217 207 190 189 184 174 178 171 165 157 162 82 222 253 169 255 347 26 246 268 261 238 230 248 257 261
256 249 248 248 262 269 283 295 304 358 342 321 293 260 231 240 252 240 221 211 193 189 178 183 177 166 157 177 171 130 171 212 215 218 242 307 247 287 303 275 261 255 252 252 242
248 238 236 229 224 223 247 270 282 295 318 325 301 289 268 233 257 245 208 195 182 189 183 185 174 163 160 169 180 175 216 210 255 238 254 238 271 250 219 264 252 253 281 256 239
209 211 228 239 234 233 236 253 253 272 284 306 319 305 287 212 218 200 195 183 183 181 180 172 170 158 141 179 189 180 246 235 275 277 280 242 274 278 233 254 270 285 276 261 236
221 206 203 222 232 227 233 230 257 261 284 302 320 329 277 232 248 192 174 186 185 183 186 178 168 149 172 181 155 221 271 257 261 268 268 270 258 259 270 276 277 270 259 255 247
259 231 213 210 230 235 234 232 242 262 287 299 318 328 297 263 212 205 182 190 192 193 188 182 189 174 160 179 169 219 253 276 287 276 262 227 248 267 270 269 281 278 274 255 254
267 247 229 209 217 222 229 224 236 251 277 289 297 304 279 249 219 173 174 170 188 191 191 185 176 181 160 185 229 157 317 324 258 258 231 207 277 229 266 269 272 269 269 258 261
263 257 247 223 216 219 223 227 217 253 268 289 308 306 261 237 212 166 170 174 181 184 183 187 177 175 163 234 32 77 57 347 297 141 230 147 268 276 248 269 265 278 286 271 258
261 259 249 245 227 231 227 228 242 250 275 304 303 303 266 224 212 201 192 181 182 180 166 181 178 161 128 86 7 6 213 207 311 187 142 150 281 276 267 289 287 284 285 279 261
250 276 252 243 236 234 226 235 252 268 267 287 256 296 240 213 182 189 171 160 167 173 152 156 140 106 71 140 213 184 211 238 238 229 178 248 266 271 282 290 283 287 289 286 276
228 268 261 241 238 232 227 238 238 260 230 219 171 183 147 174 160 174 170 158 151 162 153 167 135 205 203 175 98 130 174 241 277 10 312 251 273 280 283 275 278 283 290 280 284
233 255 277 257 238 228 222 200 191 169 306 255 239 226 176 178 163 175 170 166 157 169 124 77 241 199 157 181 235 304 7 290 290 356 193 303 283 284 277 260 266 274 276 290 274
249 274 284 268 219 199 198 202 198 215 305 279 239 229 224 210 210 184 180 162 136 136 186 170 209 164 160 160 184 217 203 219 232 330 258 330 286 318 296 284 284 272 265 260 271
256 293 314 239 171 168 171 183 158 149 26 258 207 230 198 183 230 202 184 154 171 184 158 247 279 112 144 177 137 243 201 173 204 65 238 45 287 306 294 304 274 293 239 236 270
319 329 329 171 159 171 175 164 155 149 30 233 155 164 167 175 141 168 181 175 162 177 133 234 196 187 162 199 158 217 116 138 117 124 6 317 64 271 318 289 298 359 174 201 249
344 338 333 179 162 173 171 168 144 89 245 168 132 148 132 143 81 105 169 152 149 132 215 218 229 176 197 107 154 146 78 46 54 73 338 239 146 289 247 250 312 344 22 203 218
333 332 346 159 174 174 167 154 111 184 285 193 170 154 134 141 113 134 154 173 166 134 200 22 216 278 149 87 57 96 92 336 346 10 226 360 94 247 275 284 275 296 296 281 217
338 41 80 155 168 185 180 134 129 243 213 128 131 136 175 136 161 148 138 195 245 115 135 161 270 169 191 178 175 178 155 164 212 196 244 56 228 248 216 300 296 321 332 301 219
42 79 44 120 180 192 197 168 196 206 188 150 105 137 175 169 133 139 181 202 203 193 199 162 257 120 133 150 144 177 199 158 97 26 60 226 279 304 88 31 10 352 337 340 274
109 67 24 122 190 187 126 174 71 344 336 14 149 183 165 163 161 174 172 240 220 186 212 244 259 12 134 124 47 147 173 94 8 201 239 272 276 243 359 350 352 5 4 352 323
144 49 27 23 168 152 134 144 336 340 355 3 128 139 123 156 171 174 178 22 4 329 202 78 343 338 120 215 167 148 182 146 147 172 182 161 250 356 14 2 0 5 6 5 352
67 41 24 75 68 47 56 38 17 7 356 22 54 106 86 114 156 190 193 49 359 145 162 189 116 203 204 278 253 258 203 170 161 216 238 188 254 18 42 24 21 17 15 29 36
78 42 29 23 102 13 334 348 49 25 19 6 41 23 7 78 89 60 39 26 37 59 99 146 201 123 319 296 87 217 193 195 126 99 201 148 234 103 37 27 19 18 18 28 36
80 46 31 51 56 114 69 7 13 22 52 1 20 29 20 60 52 67 54 35 40 41 6 207 194 208 206 155 110 184 193 189 182 193 220 224 169 348 15 18 5 12 19 23 30
54 68 40 356 16 44 66 47 167 4 357 19 70 44 19 47 33 51 12 355 54 6 72 73 274 236 276 290 359 32 242 202 217 229 223 259 223 51 22 13 7 14 16 20 21
79 67 71 19 46 42 16 350 32 105 42 340 58 338 26 77 63 49 356 21 43 344 19 32 314 221 275 250 244 250 239 267 276 285 279 262 256 16 60 32 26 19 19 20 17
56 59 87 6 20 66 336 18 19 130 48 47 257 17 68 104 310 283 270 280 285 340 332 356 331 335 268 319 165 249 300 255 165 64 12 241 36 10 35 47 28 19 24 19 14